Location: Altenhof
(50.2418°N, 10.8789°E)
Time: 17:57:19
(UTC+00:00)

Cosmos 1656 Rocket - Pass Details

Date: 18 February 2020
Orbit: 794 x 848 km, 71.1° (Epoch: 05 April)

Event Time Altitude Azimuth Distance (km) Brightness Sun altitude
Rises 04:53:43 0° 330° (NNW) 3,404 6.5 -14.9°
Reaches altitude 10° 04:56:09 10° 329° (NNW) 2,471 5.8 -14.5°
Maximum altitude 05:01:51 81° 244° (WSW) 864 3.6 -13.6°
Drops below altitude 10° 05:07:31 10° 158° (SSE) 2,468 6.5 -12.7°
Sets 05:09:58 0° 157° (SSE) 3,398 7.2 -12.3°
